Weather in Podshivalovo

Russia / Udmurt Republic     56°43′59″N   52°58′03″E
temp.,
°C
wind,
m/s
gust,
m/s
humid.,
%
clouds,
%
prec.,
mm/h
press.,
hPa
HPBL,
m
13 june, sun
sun1301:00+13ese4119599 0.1 1015296
04:00+11ese4991100 0.1 1014199
07:00+16sse598494 0.0 1014371
10:00+21s587197 0.0 10151038
13:00+23s576464 1.0 10141459
16:00+22s587574 3.5 10151064
19:00+21s4881100 1.6 1015272
22:00+17sse399141 1.8 1016169
14 june, mon
mon1401:00+16s3109525 0.0 1016224
04:00+15sse249496 0.0 101680
07:00+18sse3686100 0.0 1016197
10:00+22s4667100 0.0 1017641
13:00+24ssw5762100 0.0 10161166
16:00+25sw5764100 0.0 10161442
19:00+23ssw3777100 0.0 1016272
22:00+19sw3491100 0.0 101662
15 june, tue
tue1501:00+18wsw2390100 0.0 101657
04:00+17wsw118994 0.0 101611
07:00+21sse127685 0.0 1016190
10:00+25s22597 0.0 1015898
13:00+27s235396 0.0 10141424
16:00+27s4356100 0.0 10131346
19:00+22sse2379100 0.7 101247
22:00+17nw2496100 2.9 101378
16 june, wed
wed1601:00+17sw3895100 1.8 1013177
04:00+17wsw2291100 2.0 101339
07:00+19s359199 0.1 1014201
10:00+24ssw466587 0.1 1013585
13:00+27sse355150 0.0 1012903
16:00+28s475460 0.0 10111636
19:00+25s367389 0.0 1010215
22:00+21se366950 0.4 100980
17 june, thu
thu1701:00+19s338996 0.0 100850
04:00+17wsw2291100 0.0 100714
07:00+19nnw468985 0.3 1007351
10:00+20n61080100 0.3 1009801
13:00+22n786168 0.0 10111444
16:00+23n785028 0.0 10122142
19:00+19n611500 0.0 1015718
22:00+14nnw35621 0.0 101786